Current Version              Previous Version:    01  02  03  04  05  06  07  08  09  10  11  12  13  14  15  16  17  18  19  20  21  22  23  24  25  26  27  28  29  30  
   31  32  33  34  35  36  37  38  39  40  41  42  43  44  45  46  47  48  49  50  51  52  53  54  55  56  57  58  59  60  

[Printable]
511
ASUS44 KFWD 290001
RWRTX
NORTH TEXAS HOURLY WEATHER ROUNDUP
NATIONAL WEATHER SERVICE FORT WORTH TX
700 PM CDT THU AUG 28 2014

NOTE: "FAIR" INDICATES FEW OR NO CLOUDS BELOW 12,000 FEET WITH NO
SIGNIFICANT WEATHER AND/OR OBSTRUCTIONS TO VISIBILITY.

TXZ118-119-290100-
DALLAS/FORT WORTH METROPLEX

CITY           SKY/WX    TMP DP  RH WIND       PRES   REMARKS
DFW AIRPORT    MOSUNNY   93  60  33 S10       29.83S HX  93
6HR MIN TEMP:  91; 6HR MAX TEMP:  96;

DALLAS LOVE    MOSUNNY   94  62  34 S12       29.82F HX  94
6HR MIN TEMP:  91; 6HR MAX TEMP:  96;

FTW MEACHAM    SUNNY     95  60  31 SE10      29.83S HX  95
6HR MIN TEMP:  91; 6HR MAX TEMP:  98;

DAL-EXECUTIVE  MOSUNNY   95  62  33 SE12      29.83S HX  96
6HR MIN TEMP:  92; 6HR MAX TEMP:  98;

FTW-ALLIANCE   MOSUNNY   93  59  31 S14       29.82F HX  92
6HR MIN TEMP:  91; 6HR MAX TEMP:  97;

FTW-NAS-JRB    MOSUNNY   97  57  26 SE10      29.87S HX  96
6HR MIN TEMP:  92; 6HR MAX TEMP: 100;

FTW-SPINKS     MOSUNNY   93  61  33 SE9       29.85S HX  93
ARLINGTON      SUNNY     94  62  34 SE9       29.83S HX  94
6HR MIN TEMP:  90; 6HR MAX TEMP:  96;

ADDISON        MOSUNNY   93  59  31 S7        29.84F HX  92
MESQUITE       MOSUNNY   93  63  36 SE10      29.83F HX  94
LANCASTER      SUNNY     93  62  35 SE6       29.84S HX  93
6HR MIN TEMP:  91; 6HR MAX TEMP:  97;

$$

TXZ091>094-102>105-117-120-121-131>134-290100-
NORTH CENTRAL TEXAS

CITY           SKY/WX    TMP DP  RH WIND       PRES   REMARKS
SHRMAN/DENISON SUNNY     92  60  33 SE13      29.86S HX  92
6HR MIN TEMP:  90; 6HR MAX TEMP:  96;

GAINESVILLE    SUNNY     89  64  42 SE7       29.87S HX  90
6HR MIN TEMP:  86; 6HR MAX TEMP:  92;

BRIDGEPORT     SUNNY     94  55  27 SE7       29.86R HX  91
6HR MIN TEMP:  91; 6HR MAX TEMP:  96;

DECATUR        SUNNY     92  57  31 SE8       29.85S HX  90
6HR MIN TEMP:  89; 6HR MAX TEMP:  93;

DENTON         SUNNY     92  62  36 SE12      29.83F HX  92
6HR MIN TEMP:  90; 6HR MAX TEMP:  96;

MCKINNEY       SUNNY     92  65  40 SE13      29.84S HX  94
6HR MIN TEMP:  90; 6HR MAX TEMP:  95;

GREENVILLE     SUNNY     93  61  33 S9        29.85S HX  93
ROCKWALL       SUNNY     92  67  44 SE9       29.83S HX  95
6HR MIN TEMP:  89; 6HR MAX TEMP:  95;

TERRELL        SUNNY     94  64  37 SE8       29.84F HX  95
6HR MIN TEMP:  92; 6HR MAX TEMP:  97;

WAXAHACHIE     MOSUNNY   92  59  32 SE5       29.85S HX  92
6HR MIN TEMP:  91; 6HR MAX TEMP:  96;

CLEBURNE       MOSUNNY   93  64  38 SE8G15    29.85S HX  95
$$

TXZ083>090-098>101-113>116-127>130-139>142-154-155-290100-
WESTERN NORTH TEXAS

CITY           SKY/WX    TMP DP  RH WIND       PRES   REMARKS
WICHITA FALLS  TSTM      76  70  82 E12       29.85F
6HR MIN TEMP:  76; 6HR MAX TEMP:  99; 6HR PCP:  0.38;

WF-KICKAPOO    RAIN      74  74  98 N14       29.87F
6HR MIN TEMP:  73; 6HR MAX TEMP: 100; 6HR PCP:  0.09;

VERNON         PTSUNNY   80  68  67 E10       29.86S
6HR MIN TEMP:  75; 6HR MAX TEMP: 100; 6HR PCP:  0.03;

ABILENE        SUNNY     95  58  28 SE18G26   29.84S HX  94
6HR MIN TEMP:  93; 6HR MAX TEMP:  98;

ABILENE-DYESS  SUNNY     94  60  33 S12       29.82F HX  93
6HR MIN TEMP:  92; 6HR MAX TEMP:  98;

BRECKENRIDGE   SUNNY     96  55  24 SE17      29.82S HX  94
6HR MIN TEMP:  94; 6HR MAX TEMP: 101;

MINERAL WELLS  SUNNY     94  58  29 SE8       29.82F HX  93
6HR MIN TEMP:  92; 6HR MAX TEMP:  97;

STEPHENVILLE   PTSUNNY   94  57  28 SE10G18   29.87F HX  93
6HR MIN TEMP:  90; 6HR MAX TEMP:  96;

COMANCHE         N/A     93  56  28 SE12      29.85S HX  91
6HR MIN TEMP:  91; 6HR MAX TEMP:  98;

BROWNWOOD      SUNNY     93  57  29 SE13      29.84S HX  92
COLEMAN        SUNNY     94  53  25 SE14      29.85S HX  92
6HR MIN TEMP:  91; 6HR MAX TEMP:  97;

BRADY          SUNNY     93  57  29 SE9       29.85F HX  92
$$

TXZ143>147-156>162-174-175-290100-
CENTRAL TEXAS

CITY           SKY/WX    TMP DP  RH WIND       PRES   REMARKS
WACO           SUNNY     92  67  43 SE17      29.83S HX  95
6HR MIN TEMP:  91; 6HR MAX TEMP:  98;

WACO-TSTC      SUNNY     93  66  40 S13       29.83F HX  96
WACO-MCGREGOR  SUNNY     93  64  38 SE17      29.84S HX  95
6HR MIN TEMP:  93; 6HR MAX TEMP: 100;

HILLSBORO      SUNNY     93  59  31 SE13G18   29.83F HX  93
6HR MIN TEMP:  92; 6HR MAX TEMP:  97;

CORSICANA      SUNNY     92  68  45 SE15      29.85S HX  96
6HR MIN TEMP:  92; 6HR MAX TEMP:  97;

MEXIA          SUNNY     89  68  49 SE7G16    29.84F HX  93
6HR MIN TEMP:  89; 6HR MAX TEMP:  96;

CAMERON        SUNNY     91  70  50 SE8       29.83F HX  96
TEMPLE         SUNNY     90  66  45 SE16G24   29.84F HX  92
6HR MIN TEMP:  90; 6HR MAX TEMP:  99;

KILLEEN        MOSUNNY   90  68  48 SE17G25   29.85S HX  93
KILLEEN-SKYLRK SUNNY     90  66  45 SE16      29.85S HX  92
6HR MIN TEMP:  90; 6HR MAX TEMP:  99;

FORT HOOD      SUNNY     92  68  45 SE13G20   29.85F HX  96
6HR MIN TEMP:  92; 6HR MAX TEMP: 100;

$$

TXZ095>097-106>112-122>126-135>138-148>153-164>167-290100-
EAST TEXAS

CITY           SKY/WX    TMP DP  RH WIND       PRES   REMARKS
PARIS          CLEAR     90  66  45 SE12      29.87S HX  92
6HR MIN TEMP:  90; 6HR MAX TEMP:  93;

SULPHUR SPRNGS MOSUNNY   92  64  38 SE6       29.87S HX  93
6HR MIN TEMP:  91; 6HR MAX TEMP:  96;

CLARKSVILLE    CLEAR     91  66  43 E3        29.86S HX  93
6HR MIN TEMP:  91; 6HR MAX TEMP:  95;

MOUNT PLEASANT CLEAR     89  67  47 SE8       29.86F HX  92
6HR MIN TEMP:  89; 6HR MAX TEMP:  95;

MINEOLA        CLEAR     91  64  40 SE5       29.86S HX  93
TYLER          CLEAR     92  67  43 SE12      29.85F HX  95
6HR MIN TEMP:  90; 6HR MAX TEMP:  97;

LONGVIEW       PTCLDY    88  69  53 S15       29.86S HX  92
6HR MIN TEMP:  88; 6HR MAX TEMP:  95;

MARSHALL       CLEAR     94  71  48 S7        29.89S HX 101
6HR MIN TEMP:  94; 6HR MAX TEMP:  96;

ATHENS         PTSUNNY   90  70  51 S12       29.84F HX  95
PALESTINE      SUNNY     87  71  57 S7        29.87F HX  92
JACKSONVILLE   CLEAR     87  70  57 SE5       29.90F HX  92
HENDERSON      CLEAR     88  71  56 S8        29.88F HX  93
6HR MIN TEMP:  87; 6HR MAX TEMP:  95;

NACOGDOCHES    CLEAR     84  72  65 S9        29.88F
6HR MIN TEMP:  84; 6HR MAX TEMP:  93;

LUFKIN         PTCLDY    86  73  65 S7        29.88F HX  93
6HR MIN TEMP:  79; 6HR MAX TEMP:  95; 6HR PCP:  0.03;

$$

SUPPLEMENTAL OBSERVATIONS (CENTRAL)

CITY           SKY/WX    TMP DP  RH WIND       PRES   REMARKS
$$

SUPPLEMENTAL OBSERVATIONS (WEST)

CITY           SKY/WX    TMP DP  RH WIND       PRES   REMARKS
$$

SUPPLEMENTAL OBSERVATIONS (EAST)

CITY           SKY/WX    TMP DP  RH WIND       PRES   REMARKS
$$

SUPPLEMENTAL OBSERVATIONS ARE A COLLECTION OF AUTOMATED INSTRUMENTS
THAT ARE MAINTAINED BY A VARIETY OF FEDERAL AND STATE AGENCIES.
CERTAIN ELEMENTS...SUCH AS HUMIDITY VALUES AND SUSTAINED WIND
SPEEDS...MAY BE APPROXIMATED.